カタログに戻る

NIMBUS 2 DEB

運用中LEO
NORAD 28621·DEBRIS·🇺🇸 United States

打ち上げ May 15, 1966 から Vandenberg Space Force Base

Loading…

次のパス (今後24時間)

TLE

最新Source: Space-Track

元期: Sep 13, 2026, 23:13 UTC

1 28621U 66040AM  26256.96743764  .00007381  00000-0  27010-2 0  9993
2 28621 100.2516 147.9910 0031606 339.8542  20.1387 14.32979362729428

AllMySatでNIMBUS 2 DEBをリアルタイム追跡

Download on the App Store